Weather History for Thermal, CA

Change the Weather History Date:

Friday, February 22, 2013

  Actual Average Record
Temperature  
Mean Temperature 50 °F 59 °F  
Max Temperature 70 °F 76 °F 92 °F (1954)
Min Temperature 30 °F 43 °F 27 °F (1955)
Degree Days  
Heating Degree Days 15 6  
Month to date heating degree days 193 172  
Since 1 July heating degree days 1020 1032  
Cooling Degree Days 0 1  
Month to date cooling degree days 0 2  
Year to date cooling degree days 0 4  
Growing Degree Days 2 (Base 50)    
Moisture  
Dew Point 26 °F    
Average Humidity 43    
Maximum Humidity 70    
Minimum Humidity 15    
Precipitation  
Precipitation 0.00 in 0.03 in 0.65 in (2004)
Month to date precipitation T 0.52  
Year to date precipitation 0.37 1.19  
Since 1 July precipitation 2.55 2.57  
Snow  
Snow 0.00 in - - ()
Month to date snowfall 0.0  
Year to date snowfall 0.0  
Since 1 July snowfall 0.0  
Snow Depth 0.00 in    
Sea Level Pressure  
Sea Level Pressure 30.12 in    
Wind  
Wind Speed 3 mph (ENE)    
Max Wind Speed 10 mph    
Max Gust Speed 20 mph    
Visibility 10 miles    
Events      
T = Trace of Precipitation, MM = Missing Value Source: NWS Daily Summary

Daily Weather History Graph

Daily Weather History Graph

Search for Another Location

Airport:

Trip Planner

Search our weather history database for the weather conditions in past years. The results will help you decide how hot, cold, wet, or windy it might be!

Date:

Astronomy

Feb. 22, 2013 Rise Set
Actual Time 6:20 AM PST 5:35 PM PST
Civil Twilight 5:55 AM PST 6:00 PM PST
Nautical Twilight 5:26 AM PST 6:29 PM PST
Astronomical Twilight 4:57 AM PST 6:58 PM PST
Moon 2:56 PM PST (2/22) 4:03 AM PST (2/22)
Length of Visible Light 12h 05m
Length of Day
11h 14m
Waxing Gibbous, 91% of the Moon is Illuminated
Feb 22
Waxing Gibbous
Feb 25
Full
Mar 4
Last Quarter
Mar 11
New
Mar 19
First Quarter

Hourly Weather History & Observations

Time (PST) Temp. Windchill Dew Point Humidity Pressure Visibility Wind Dir Wind Speed Gust Speed Precip Events Conditions
12:52 AM 37.0 °F 32.4 °F 26.1 °F 65% 30.07 in 10.0 mi North 5.8 mph - N/A   Clear
1:52 AM 39.9 °F 37.8 °F 26.1 °F 58% 30.08 in 10.0 mi NNE 3.5 mph - N/A   Clear
2:52 AM 39.0 °F - 26.1 °F 60% 30.08 in 10.0 mi Calm Calm - N/A   Clear
4:52 AM 33.1 °F 30.0 °F 25.0 °F 72% 30.10 in 10.0 mi WSW 3.5 mph - N/A   Clear
5:52 AM 36.0 °F - 26.1 °F 67% 30.11 in 10.0 mi Calm Calm - N/A   Clear
6:52 AM 35.1 °F 32.2 °F 27.0 °F 72% 30.14 in 10.0 mi North 3.5 mph - N/A   Clear
7:52 AM 46.0 °F - 30.0 °F 54% 30.17 in 10.0 mi Calm Calm - N/A   Clear
8:52 AM 52.0 °F - 30.9 °F 45% 30.17 in 10.0 mi Calm Calm - N/A   Clear
9:52 AM 57.9 °F - 26.1 °F 30% 30.18 in 10.0 mi NW 3.5 mph - N/A   Clear
10:52 AM 63.0 °F - 23.0 °F 22% 30.17 in 10.0 mi Variable 3.5 mph - N/A   Clear
11:52 AM 66.0 °F - 23.0 °F 20% 30.15 in 10.0 mi East 6.9 mph - N/A   Clear
12:52 PM 68.0 °F - 23.0 °F 18% 30.12 in 10.0 mi South 5.8 mph - N/A   Clear
1:52 PM 69.1 °F - 21.0 °F 16% 30.09 in 10.0 mi SSE 6.9 mph - N/A   Clear
2:52 PM 70.0 °F - 19.9 °F 15% 30.07 in 10.0 mi SSE 6.9 mph - N/A   Clear
3:52 PM 68.0 °F - 19.9 °F 16% 30.07 in 10.0 mi SE 9.2 mph - N/A   Clear
4:52 PM 64.9 °F - 21.0 °F 19% 30.07 in 10.0 mi SSE 8.1 mph - N/A   Clear
5:52 PM 55.9 °F - 25.0 °F 30% 30.09 in 10.0 mi South 4.6 mph - N/A   Clear
6:52 PM 52.0 °F - 32.0 °F 47% 30.10 in 10.0 mi SSE 4.6 mph - N/A   Clear
7:52 PM 48.0 °F - 30.0 °F 50% 30.11 in 10.0 mi NE 4.6 mph - N/A   Clear
8:52 PM 46.9 °F - 30.9 °F 54% 30.12 in 10.0 mi NNW 3.5 mph - N/A   Clear
9:52 PM 45.0 °F 43.5 °F 30.9 °F 58% 30.14 in 10.0 mi WNW 3.5 mph - N/A   Clear
10:52 PM 44.1 °F 41.5 °F 28.0 °F 53% 30.14 in 10.0 mi North 4.6 mph - N/A   Clear
11:52 PM 39.0 °F 35.7 °F 27.0 °F 62% 30.14 in 10.0 mi NNE 4.6 mph - N/A   Clear